STARLINK-34406, 64705

Orbit data source: Space-Track

STARLINK-34406, 64705 is a payload satellite owned by SpaceX/Seattle (US) in LEO that was launched on Sat, 28 Jun 2025 UTC via an FALCON 9 launch vehicle from the Air Force Western Test Range (AFWTR). Payload-class satellites include a variety of spacecraft equipped with specific instruments for various scientific and technological missions. These include communications satellites like Starlink; space stations such as the ISS; scientific satellites like the Hubble; Earth observation satellites from companies like Planet Labs, Umbra, and HawkEye 360; GPS; miniature CubeSats for education and research; and military/defense satellites.

Loading next visibility...
Identifier
64705, 2025-142K
Orbit
LEO
Country
Flag of USUS
Related business
Manufacturer
SpaceX/Seattle
Mission
Operational Commercial Communications
Bus & Motor
STARLINK V2MO, Unknown motor
Mass
575 kg wet, ~530 kg dry
Launch date (UTC)
2025-06-28 (1 year ago)
Launch vehicle
FALCON 9
Launch site
Air Force Western Test Range (AFWTR)
Object type
Payload
Rocket body
Debris
Shape & HBR
Box + 2 Pan, 17.7 m
Radar Cross Section
36.964 m², Large (>1 m²)

Expand to show TLE details & history
Last TLE update: 8 hours ago

TLE from 8 hours ago
0 STARLINK-34406
1 64705U 25142K   26207.58328155  .00005420  00000-0  46167-3 0  9998
2 64705  70.0036 324.3411 0003362 271.5837  88.4937 14.98333468 60403
Epoch: 2026-07-26T13:59Z
TLE epoch observation values (Epoch: 2026-07-26T13:59:55.525Z)
Latitude
-0.00005°
Longitude
170.0806°
Altitude
574.409 km
Speed
7.574 km/s
True Right ascension
21h 37m 21s
True Declination
0° 00' 00"
Sunlit
Object was in full shadow at epoch
Visualization orbit readout
Latitude
Unknown
Longitude
Unknown
Altitude
Unknown
Speed
Unknown
Apparent Right ascension
Unknown
Apparent Declination
Unknown
Sunlit
N/A
Visualization observer readout
Local Sidereal Time
11:03:54
Azimuth
Unknown
Elevation
Unknown
Doppler factor
Unknown
Orbital elements
Apogee altitude
572.329 km
Perigee altitude
567.657 km
Semi-major axis
6,948.13 km
Eccentricity
0.00034
Inclination
70.0036°
RAAN
324.3411°
Arg. of periapsis
271.5837°
True anomaly
88.53221°
Mean anomaly
88.4937°
Eccentric anomaly
88.51296°
Mean motion
3.7475 °/min
Orbital period
96.06 mins
BSTAR
0.00046167
Loading maneuver chart data...
Computing Atmospheric mass density...
Loading historical data...
Loading historical data...
Loading historical data...
Loading historical data...
Loading historical data...
Loading historical data...
Loading historical data...

Documentation

Showing up to 5 results
|